Location: Unspecified
(0.0000°N, 0.0000°E)
Time: 04:17:36
(UTC+00:00)

Daily predictions for brighter satellites

Satellite Brightness Start Highest point End
(mag) Time Altitude Azimuth Time Altitude Azimuth Time Altitude Azimuth
Milstar 3 Cent rocket 4.4 02:28:47 10° WSW 02:56:46 53° NE 03:03:05 10° NE
CZ-3 R/B 4.4 03:15:13 38° N 03:18:12 39° N 03:28:11 10° ENE
Ariane H10+ 4.2 03:38:01 28° ENE 03:38:01 28° ENE 03:39:39 10° E
Cosmos 2360 Rocket 4.2 03:46:19 18° S 03:46:19 18° S 03:47:43 10° S
H-2A ROCKET BODY 4.5 03:40:11 36° SW 03:43:30 44° S 04:28:47 10° SE
Cosmos 1725 Rocket 4.1 03:46:58 10° S 03:52:47 72° SE 03:52:47 72° SE
Cosmos 2333 Rocket 3.8 04:00:34 21° NNE 04:03:24 31° ENE 04:08:26 10° SE
ARIANE 5 R/B 3.0 04:05:14 32° E 04:05:14 32° E 04:06:32 10° E
Ariane 42L Rocket 4.2 04:04:25 36° NNE 04:04:25 36° NNE 04:13:37 10° ENE
Delta 168 4.2 04:04:22 70° W 04:05:21 82° SSW 04:11:31 10° ESE
Cosmos 2219 Rocket 2.9 04:06:24 38° NNE 04:07:57 48° ENE 04:13:20 10° SSE
Cosmos 2227 4.0 04:11:01 10° SSW 04:20:45 19° N 04:22:15 10° NNE
CENTAUR R/B 3.9 04:19:50 31° WSW 04:19:50 31° WSW 04:26:10 10° S
Tiangong 1 3.8 04:21:31 16° E 04:21:31 16° E 04:22:33 10° E
ARIANE 5 R/B 3.7 03:35:45 10° W 04:20:54 67° S 04:25:50 10° E
Okean-O 4.2 04:24:27 23° SSW 04:24:27 23° SSW 04:26:10 10° SSW
Cosmos 332 Rocket 4.0 04:24:35 45° NNE 04:25:59 68° ENE 04:30:50 10° SSE
OAO 1 4.4 04:25:58 66° W 04:26:32 72° SW 04:32:03 10° SE
CZ-2C R/B 3.6 04:25:52 10° SSE 04:30:20 85° ENE 04:31:13 57° N
Ariane H10 3.7 04:34:08 40° WNW 04:36:52 69° NNE 05:08:34 10° E
Cosmos 1408 Rocket 3.5 04:35:26 37° N 04:37:05 78° E 04:41:23 10° S
Cosmos 44 2.9 04:38:24 62° WSW 04:38:27 62° WSW 04:42:42 10° SSE
Cosmos 2233 Rocket 3.9 04:32:40 10° S 04:38:50 71° W 04:45:02 10° N
Cosmos 2237 Rocket 2.7 04:37:07 14° N 04:42:01 59° ENE 04:47:36 10° SSE
COSMOS 2428 3.6 04:44:45 29° WSW 04:44:45 29° WSW 04:49:21 10° SSW
Cosmos 1763 Rocket 3.7 04:44:39 42° W 04:45:10 43° WSW 04:50:01 10° S
SL-16 R/B 4.5 04:44:03 10° NNE 04:48:18 22° ENE 04:52:34 10° ESE
Cosmos 1842 Rocket 3.7 04:45:26 10° SSW 04:49:34 45° W 04:49:56 44° WNW
Meteor 1-16 Rocket 4.1 04:48:40 10° SSW 04:54:15 67° W 04:59:38 10° N
Cosmos 371 Rocket 3.2 04:52:02 22° NNW 04:55:07 75° W 04:59:59 10° S
Cosmos 540 Rocket 3.8 04:54:25 10° N 04:59:28 66° ENE 05:04:31 10° SSE
Cosmos 1743 Rocket 4.0 04:56:46 10° N 05:01:05 63° E 05:05:21 10° SSE
ARIANE 5 DEB (SYLDA) 3.9 05:02:55 25° W 05:05:14 87° S 05:21:00 10° E
NOAA 6 4.4 05:01:15 10° N 05:06:06 41° WNW 05:10:58 10° SSW
ATLAS 3B CENTAUR R/B 4.2 05:05:40 10° NNW 05:07:09 11° N 05:08:57 10° NNE
Cosmos 2344 3.7 05:02:12 10° SW 05:10:54 60° WNW 05:18:26 10° N
CZ-4 R/B 4.3 05:07:44 10° NE 05:10:58 22° ESE 05:14:13 10° SSE
SOZ 4.5 05:12:40 35° NW 05:13:17 57° WSW 05:15:25 10° SSE
Cosmos 1271 Rocket 3.5 05:14:53 10° SSW 05:18:19 29° W 05:21:41 10° NNW
Meteor 2-12 Rocket 4.4 05:12:17 10° S 05:18:23 77° W 05:24:30 10° N
ARIANE 44L R/B 3.0 05:20:00 19° W 05:22:11 81° N 05:29:47 10° E
Cosmos 1500 Rocket 3.5 05:22:44 10° N 05:27:11 82° W 05:31:40 10° S
Cosmos 2263 Rocket 2.2 05:22:20 10° SSW 05:27:53 62° WNW 05:33:27 10° N
Cosmos 1980 4.3 05:24:49 10° NW 05:29:54 36° WSW 05:35:01 10° S
Cosmos 1464 Rocket 4.1 05:27:06 10° SSW 05:33:19 56° W 05:39:29 10° N
ARIANE DEB (SYLDA) 4.4 04:59:27 10° W 05:34:08 65° SSW 05:39:22 10° ESE
Cosmos 304 Rocket 4.0 05:31:02 10° N 05:35:46 74° ENE 05:40:32 10° SSE
Ariane H10 2.9 05:34:20 11° WNW 05:36:56 52° N 05:43:34 10° E
Ariane H10 3.7 05:25:42 10° W 05:36:57 59° NNW 05:39:55 10° ENE
SKYMED 2 3.7 05:37:16 10° SSE 05:41:36 79° E 05:45:55 10° N
Cosmos 1674 4.4 05:39:40 10° NW 05:41:59 16° W 05:44:19 10° SW
CZ-2C R/B 3.0 05:38:09 10° NNE 05:42:40 61° ESE 05:47:19 10° S
ASTRO F (AKARI) 4.2 05:39:54 10° SSE 05:43:03 89° ENE 05:46:14 10° NNW
CSL-04 Debris 4.2 05:38:24 10° N 05:43:44 62° WNW 05:49:05 10° SSW
Cosmos 1898 Rocket 3.5 05:41:12 10° SSW 05:46:22 77° W 05:51:36 10° N
Cosmos 2333 Rocket 3.7 05:43:35 10° WNW 05:47:23 18° WSW 05:51:12 10° SSW
Sylda 4400 4.0 05:44:50 10° WNW 05:48:06 25° N 05:50:14 10° NE
Cosmos 2221 3.7 05:46:06 10° SW 05:49:31 22° W 05:52:55 10° NW
Cosmos 1461 4.0 05:47:04 10° NW 05:50:35 27° WSW 05:54:14 10° S
